FHVIP LFLB-EBBR

Flight info

Callsign FHVIP
Flight time N/A
Altitude 32000
Route VENAT T330 GILIR DCT PENDU DCT IXILU DCT GIVOR DCT SORAL DCT IBERA N853 DIK Y37 BATTY
Aircraft GLF6/M-SABDE2E3FGHIJ3J4J5P2RWXY/LB1D1

Departure

Time 2026-05-08 08:20
Airport Chambéry Aix les Bains airport (LFLB)

Arrival

Time N/A
Airport Brussels Airport (EBBR)
Time Latitude Longitude Altitude Speed Heading
2026-05-08 08:18 45.63340 5.88269 782 ft 13 kts 176°
2026-05-08 08:18 45.63246 5.88277 783 ft 14 kts 176°
2026-05-08 08:19 45.63158 5.88217 783 ft 15 kts 251°
2026-05-08 08:19 45.63176 5.88081 783 ft 14 kts 338°
2026-05-08 08:19 45.63203 5.88073 783 ft 0 kts 355°
2026-05-08 08:19 45.63332 5.88061 783 ft 61 kts 356°
2026-05-08 08:20 45.64088 5.88004 854 ft 141 kts 358°
2026-05-08 08:20 45.65109 5.87920 1688 ft 157 kts 358°
2026-05-08 08:20 45.66108 5.87845 2940 ft 154 kts 358°
2026-05-08 08:20 45.67245 5.87759 3784 ft 177 kts 358°
2026-05-08 08:21 45.68471 5.87663 4829 ft 186 kts 358°
2026-05-08 08:21 45.69760 5.87563 5908 ft 191 kts 358°
2026-05-08 08:21 45.71077 5.87460 6894 ft 200 kts 358°
2026-05-08 08:21 45.72661 5.87338 7120 ft 260 kts 358°
2026-05-08 08:22 45.74507 5.87193 8557 ft 272 kts 358°
2026-05-08 08:22 45.76369 5.87048 10028 ft 280 kts 358°
2026-05-08 08:22 45.78279 5.87348 11414 ft 288 kts 22°
2026-05-08 08:22 45.79882 5.88998 12771 ft 294 kts 52°
2026-05-08 08:23 45.80969 5.91458 14112 ft 300 kts 61°
2026-05-08 08:23 45.82175 5.93872 15346 ft 308 kts 49°
2026-05-08 08:23 45.83652 5.96121 16464 ft 321 kts 46°
2026-05-08 08:23 45.85209 5.98502 17338 ft 340 kts 46°
2026-05-08 08:24 45.86821 6.00993 18509 ft 348 kts 46°
2026-05-08 08:24 45.88480 6.03555 19707 ft 355 kts 46°
2026-05-08 08:24 45.90160 6.06152 20828 ft 363 kts 46°
2026-05-08 08:24 45.91893 6.08833 21944 ft 371 kts 46°
2026-05-08 08:25 45.93648 6.11553 23074 ft 377 kts 46°
2026-05-08 08:25 45.95422 6.14302 24137 ft 384 kts 46°
2026-05-08 08:25 45.97243 6.17129 25128 ft 393 kts 46°
2026-05-08 08:25 45.99115 6.20038 26064 ft 402 kts 46°
2026-05-08 08:26 46.01023 6.23005 26997 ft 411 kts 46°
2026-05-08 08:26 46.02976 6.26046 27921 ft 419 kts 47°
2026-05-08 08:26 46.04975 6.29162 28816 ft 427 kts 47°
2026-05-08 08:26 46.06982 6.32295 29709 ft 434 kts 47°
2026-05-08 08:27 46.09060 6.35541 30585 ft 441 kts 47°
2026-05-08 08:27 46.11144 6.38802 31348 ft 449 kts 47°
2026-05-08 08:27 46.13266 6.42126 32061 ft 445 kts 47°
2026-05-08 08:27 46.15435 6.45527 32061 ft 490 kts 47°
2026-05-08 08:28 46.17823 6.49277 32136 ft 516 kts 47°
2026-05-08 08:28 46.22738 6.57011 32059 ft 527 kts 47°
2026-05-08 08:28 46.25449 6.60629 32026 ft 524 kts 33°
2026-05-08 08:29 46.28611 6.62879 32273 ft 494 kts 12°
2026-05-08 08:29 46.31798 6.63404 34227 ft 441 kts 359°
2026-05-08 08:29 46.34829 6.63891 33926 ft 438 kts 11°
2026-05-08 08:29 46.37836 6.65186 34084 ft 469 kts 15°
2026-05-08 08:30 46.41112 6.66587 34114 ft 500 kts 14°
2026-05-08 08:30 46.51289 6.66159 34054 ft 493 kts 330°
2026-05-08 08:31 46.54053 6.63278 34039 ft 484 kts 312°
2026-05-08 08:31 46.56375 6.59784 34094 ft 486 kts 314°
2026-05-08 08:31 46.59192 6.57062 34016 ft 492 kts 331°
2026-05-08 08:31 46.62354 6.55173 34083 ft 495 kts 335°
2026-05-08 08:32 46.68552 6.50911 33888 ft 495 kts 331°
2026-05-08 08:32 46.71619 6.48733 33513 ft 492 kts 331°
2026-05-08 08:32 46.74711 6.46539 33132 ft 490 kts 331°
2026-05-08 08:33 46.77754 6.44375 32757 ft 489 kts 331°
2026-05-08 08:33 46.80819 6.42192 32373 ft 500 kts 331°
2026-05-08 08:33 46.83937 6.39970 32064 ft 505 kts 331°
2026-05-08 08:33 46.87124 6.37696 32063 ft 507 kts 332°
2026-05-08 08:34 46.93455 6.33168 32043 ft 509 kts 331°
2026-05-08 08:34 46.99797 6.28621 32034 ft 508 kts 331°
2026-05-08 08:35 47.06115 6.24078 32032 ft 508 kts 331°
2026-05-08 08:35 47.12445 6.19522 32029 ft 508 kts 331°
2026-05-08 08:36 47.18802 6.14935 32035 ft 509 kts 331°
2026-05-08 08:36 47.25134 6.10353 32024 ft 509 kts 331°
2026-05-08 08:37 47.31510 6.05727 32025 ft 509 kts 331°
2026-05-08 08:37 47.38227 6.02433 31980 ft 518 kts 355°
2026-05-08 08:38 47.41798 6.02801 32046 ft 522 kts
2026-05-08 08:38 47.45374 6.03507 32030 ft 521 kts
2026-05-08 08:38 47.52607 6.03654 32055 ft 520 kts 359°
2026-05-08 08:39 47.59811 6.03819 32025 ft 519 kts 359°
2026-05-08 08:39 47.67055 6.03982 32030 ft 521 kts 359°
2026-05-08 08:40 47.74258 6.04268 32000 ft 523 kts
2026-05-08 08:40 47.81350 6.06885 32070 ft 524 kts 13°
2026-05-08 08:41 47.88379 6.09521 32037 ft 524 kts 13°
2026-05-08 08:41 47.95430 6.12180 32037 ft 524 kts 13°
2026-05-08 08:42 48.02528 6.14863 32035 ft 525 kts 13°
2026-05-08 08:42 48.09580 6.17536 32034 ft 524 kts 13°
2026-05-08 08:43 48.16706 6.20244 32037 ft 524 kts 13°
2026-05-08 08:43 48.23786 6.22943 32041 ft 523 kts 13°
2026-05-08 08:44 48.30824 6.25634 32044 ft 525 kts 13°
2026-05-08 08:44 48.37850 6.28327 32043 ft 524 kts 13°
2026-05-08 08:45 48.44942 6.31054 32044 ft 524 kts 13°
2026-05-08 08:45 48.51967 6.33763 32042 ft 524 kts 13°
2026-05-08 08:46 48.59037 6.36497 32052 ft 525 kts 13°
2026-05-08 08:46 48.66108 6.39125 32026 ft 524 kts
2026-05-08 08:47 48.73288 6.39886 32074 ft 521 kts
2026-05-08 08:47 48.80556 6.40626 32066 ft 522 kts
2026-05-08 08:48 48.87777 6.41358 32055 ft 521 kts
2026-05-08 08:48 48.94978 6.42090 32060 ft 522 kts
2026-05-08 08:49 49.02215 6.42828 32068 ft 522 kts
2026-05-08 08:49 49.09459 6.43569 32063 ft 522 kts
2026-05-08 08:50 49.13111 6.43361 31983 ft 517 kts 348°
2026-05-08 08:50 49.16553 6.41889 32124 ft 516 kts 339°
2026-05-08 08:50 49.23448 6.38814 32067 ft 517 kts 343°
2026-05-08 08:51 49.30398 6.35961 32061 ft 517 kts 343°
2026-05-08 08:51 49.37298 6.33113 32061 ft 516 kts 343°
2026-05-08 08:52 49.44235 6.30241 32066 ft 516 kts 343°
2026-05-08 08:52 49.51129 6.27383 32073 ft 517 kts 343°
2026-05-08 08:53 49.58096 6.24531 32077 ft 517 kts 343°
2026-05-08 08:53 49.65039 6.21683 32079 ft 517 kts 343°
2026-05-08 08:54 49.68495 6.20262 31846 ft 508 kts 343°
2026-05-08 08:54 49.71815 6.18895 31335 ft 483 kts 343°
2026-05-08 08:54 49.74966 6.17596 30815 ft 461 kts 343°
2026-05-08 08:54 49.77967 6.16356 30172 ft 444 kts 343°
2026-05-08 08:55 49.80899 6.15144 29570 ft 428 kts 343°
2026-05-08 08:55 49.83689 6.13991 28968 ft 414 kts 342°
2026-05-08 08:55 49.86446 6.12855 28372 ft 406 kts 343°
2026-05-08 08:55 49.89161 6.11736 27802 ft 406 kts 343°
2026-05-08 08:56 49.91912 6.10648 27222 ft 406 kts 346°
2026-05-08 08:56 49.94667 6.09944 26650 ft 404 kts 347°
2026-05-08 08:56 49.97400 6.09031 26072 ft 401 kts 345°
2026-05-08 08:56 50.00098 6.08064 25496 ft 398 kts 345°
2026-05-08 08:57 50.02777 6.07119 24907 ft 395 kts 345°
2026-05-08 08:57 50.05439 6.06179 24323 ft 392 kts 345°
2026-05-08 08:57 50.08093 6.05239 23733 ft 388 kts 345°
2026-05-08 08:57 50.10693 6.04319 23161 ft 383 kts 345°
2026-05-08 08:58 50.13289 6.03399 22617 ft 380 kts 345°
2026-05-08 08:58 50.15855 6.02488 22081 ft 376 kts 345°
2026-05-08 08:58 50.18394 6.01586 21545 ft 374 kts 345°
2026-05-08 08:58 50.20905 6.00693 21012 ft 371 kts 345°
2026-05-08 08:59 50.23404 5.99803 20486 ft 369 kts 345°
2026-05-08 08:59 50.25878 5.98921 19964 ft 366 kts 345°
2026-05-08 08:59 50.28322 5.98049 19450 ft 362 kts 345°
2026-05-08 08:59 50.30744 5.97184 18936 ft 359 kts 345°
2026-05-08 09:00 50.33113 5.96336 18429 ft 355 kts 345°
2026-05-08 09:00 50.35418 5.95511 17985 ft 353 kts 345°
2026-05-08 09:00 50.37733 5.94682 17548 ft 350 kts 345°
2026-05-08 09:00 50.40070 5.93844 17099 ft 348 kts 345°
2026-05-08 09:01 50.42361 5.93021 16655 ft 345 kts 345°
2026-05-08 09:01 50.44639 5.92202 16208 ft 343 kts 345°
2026-05-08 09:01 50.46917 5.91383 15759 ft 341 kts 345°
2026-05-08 09:01 50.49168 5.90573 15313 ft 338 kts 346°
2026-05-08 09:02 50.51409 5.89765 14957 ft 335 kts 345°
2026-05-08 09:02 50.53641 5.88959 14657 ft 334 kts 346°
2026-05-08 09:02 50.55871 5.88149 14351 ft 333 kts 344°
2026-05-08 09:02 50.57924 5.86567 13967 ft 327 kts 319°
2026-05-08 09:03 50.59284 5.83779 13615 ft 321 kts 292°
2026-05-08 09:03 50.59751 5.80387 13313 ft 317 kts 275°
2026-05-08 09:03 50.60181 5.77000 13003 ft 319 kts 291°
2026-05-08 09:03 50.61326 5.74073 12722 ft 319 kts 306°
2026-05-08 09:04 50.62663 5.71235 12427 ft 328 kts 304°
2026-05-08 09:04 50.63953 5.68286 12138 ft 327 kts 303°
2026-05-08 09:04 50.65240 5.65331 11829 ft 326 kts 303°
2026-05-08 09:04 50.66512 5.62418 11526 ft 326 kts 303°
2026-05-08 09:05 50.67788 5.59490 11220 ft 325 kts 303°
2026-05-08 09:05 50.69072 5.56543 10911 ft 324 kts 303°
2026-05-08 09:05 50.70329 5.53651 10612 ft 322 kts 303°
2026-05-08 09:05 50.71588 5.50753 10307 ft 321 kts 303°
2026-05-08 09:06 50.72845 5.47858 10098 ft 318 kts 303°
2026-05-08 09:06 50.74099 5.44965 10104 ft 319 kts 303°
2026-05-08 09:06 50.75346 5.42084 10095 ft 320 kts 303°
2026-05-08 09:06 50.76613 5.39156 10101 ft 321 kts 304°
2026-05-08 09:07 50.77871 5.36244 10094 ft 321 kts 304°